Find MUBLCOM

NORAD ID: 25736 Int'l Des: 1999-026 Owner: CECOM Country: US operational
LEOCIRCULARRETROGRADE

Live Position

Loading 3D Globe...

About MUBLCOM

Description loading...

Upcoming Passes

Passes for default location (London). Set your location on the main map for personalized predictions.

Altitude History

Loading altitude history...

Two-Line Element Set

1 25736U 99026B 26106.05325240 .00000631 00000-0 14918-3 0 9991
2 25736 97.6932 330.6542 0005981 73.3460 286.8396 14.57071019420799
Epoch: Apr 16, 2026 • Age: 11 hours

Current Status

Altitude 722.0 km
Velocity 7.49 km/s
Sub-Earth Point -40.88°S, 117.07°E
Launch Date May 18, 1999
Age 26.9 years
Type other

Technical Details

Classification Payload
Mass 48.00 kg
Dry Mass 48.00 kg
Total Mass 48.00 kg
Length 0.20 m
Diameter 1.00 m
Span 4.30 m
Shape Cyl + 2 Pan
Manufacturer OSCG
Bus Type Microstar
Phase Status Collided
Owner/State CECOM/US

Most Searched